Location: Berg
(48.4333°N, 13.9167°E)
Time: 15:10:01
(UTC+00:00)

USA 238 DEB - Pass Details

Date: 18 September 2020
Orbit: 1006 x 1206 km, 63.4° (Epoch: 15 October)

Event Time Altitude Azimuth Distance (km) Brightness Sun altitude
Rises 17:41:41 0° 316° (NW) 3,904 7.6 -6.1°
Reaches altitude 10° 17:44:28 10° 323° (NW) 2,975 6.8 -6.5°
Maximum altitude 17:51:14 44° 34° (NE) 1,539 4.4 -7.6°
Enters shadow 17:58:12 10° 105° (ESE) 3,074 5.4 -8.8°
